Location: Powder Track
(41.8531°N, 72.3584°W)
Time: 18:05:31
(UTC+00:00)

Vanguard 1 Rocket - Pass Details

Date: 10 August 2021
Orbit: 650 x 4226 km, 34.3° (Epoch: 20 September)

Event Time Altitude Azimuth Distance (km) Brightness Sun altitude
Rises 17:37:34 0° 280° (W) 7,597 12.2 61.9°
Reaches altitude 10° 17:43:47 10° 275° (W) 6,045 11.9 61.5°
Maximum altitude 17:58:31 40° 214° (SW) 2,673 11.5 60.1°
Drops below altitude 10° 18:06:36 10° 147° (SSE) 3,355 10.6 59.3°
Sets 18:09:01 0° 139° (SE) 4,013 10.8 59.0°
